Showing default

NORSAT 2, 42828

Orbit data source: Space-Track

NORSAT 2, 42828 is a payload satellite owned by Statsat (NO) in SSO that was launched on Fri, 14 Jul 2017 UTC via a SOYUZ-2-1A launch vehicle from the Tyuratam Missile And Space Complex (TTMTR). Payload-class satellites include a variety of spacecraft equipped with specific instruments for various scientific and technological missions. These include communications satellites like Starlink; space stations such as the ISS; scientific satellites like the Hubble; Earth observation satellites from companies like Planet Labs, Umbra, and HawkEye 360; GPS; miniature CubeSats for education and research; and military/defense satellites.

Loading next visibility...
Identifier
42828, 2017-042D
Orbit
SSO
Country
Flag of NONO / NOR
Related business
Manufacturer
UTIAS-SFL
Mission
Operational Commercial Communications
Bus & Motor
GNB, Unknown motor
Mass
30 kg wet, 30 kg dry
Launch date (UTC)
2017-07-14 (9 years ago)
Launch vehicle
SOYUZ-2-1A
Launch site
Tyuratam Missile And Space Complex (TTMTR)
Object type
Payload
Rocket body
Debris
Shape & HBR
Box + 2 Pan + 4 Ant, 1.2 m
Radar Cross Section
0.202 m², Medium (>0.1 m² and < 1m²)

Expand to show TLE details & history
Last TLE update: 19 hours ago

TLE from 19 hours ago
0 NORSAT 2
1 42828U 17042D   26072.43179160  .00013585  00000-0  63587-3 0  9990
2 42828  97.3977 247.5594 0010194  32.3929 327.7930 15.19809015473180
Epoch: 2026-03-13T10:21Z
TLE epoch observation values (Epoch: 2026-03-13T10:21:46.794Z)
Latitude
-0°
Longitude
-78.95299°
Altitude
503.57 km
Speed
7.616 km/s
True Right ascension
16h 30m 14s
True Declination
0° 00' 00"
Sunlit
Object was in daylight at epoch
Visualization orbit readout
Latitude
Unknown
Longitude
Unknown
Altitude
Unknown
Speed
Unknown
Apparent Right ascension
Unknown
Apparent Declination
Unknown
Sunlit
N/A
Visualization observer readout
Local Sidereal Time
10:04:52
Azimuth
Unknown
Elevation
Unknown
Doppler factor
Unknown
Orbital elements
Apogee altitude
510.398 km
Perigee altitude
496.368 km
Semi-major axis
6,881.52 km
Eccentricity
0.00102
Inclination
97.3977°
RAAN
247.5594°
Arg. of periapsis
32.3929°
True anomaly
327.73067°
Mean anomaly
327.793°
Eccentric anomaly
327.76184°
Mean motion
3.80204 °/min
Orbital period
94.69 mins
BSTAR
0.00063587
Loading maneuver chart data...
Computing Atmospheric mass density...
Loading historical data...
Loading historical data...
Loading historical data...
Loading historical data...
Loading historical data...
Loading historical data...
Loading historical data...

Documentation

Showing up to 5 results
|